N36BG SMJP-SOOG

Flight info

Callsign N36BG
Flight time N/A
Altitude 7000
Route MINAL G443 MIKOK/N0169F080 N662 TEKAD/N0169F070
Aircraft BE36/L-BDFGLORY/S

Departure

Time 2026-04-30 14:10
Airport Johan Adolf Pengel International Airport (SMJP)

Arrival

Time N/A
Airport Saint-Georges-de-l'Oyapock Airport (SOOG)
Time Latitude Longitude Altitude Speed Heading
2026-04-30 13:41 5.45489 -55.19984 59 ft 0 kts 358°
2026-04-30 14:07 5.45499 -55.20043 59 ft 13 kts 235°
2026-04-30 14:07 5.45453 -55.20147 59 ft 20 kts 268°
2026-04-30 14:07 5.45435 -55.20303 57 ft 23 kts 225°
2026-04-30 14:08 5.45388 -55.20348 58 ft 0 kts 173°
2026-04-30 14:08 5.45360 -55.20345 58 ft 9 kts 174°
2026-04-30 14:09 5.45289 -55.20293 57 ft 18 kts 100°
2026-04-30 14:09 5.45290 -55.20083 59 ft 56 kts 89°
2026-04-30 14:09 5.45275 -55.18875 277 ft 96 kts 89°
2026-04-30 14:10 5.45237 -55.18194 538 ft 92 kts 91°
2026-04-30 14:10 5.45194 -55.17601 1084 ft 82 kts 90°
2026-04-30 14:10 5.45142 -55.17017 1683 ft 86 kts 92°
2026-04-30 14:10 5.45036 -55.16353 1993 ft 118 kts 112°
2026-04-30 14:11 5.44571 -55.15650 2273 ft 112 kts 123°
2026-04-30 14:11 5.44233 -55.15057 2749 ft 86 kts 100°
2026-04-30 14:11 5.44086 -55.14489 3096 ft 84 kts 103°
2026-04-30 14:11 5.43931 -55.13923 3405 ft 84 kts 102°
2026-04-30 14:12 5.43785 -55.13354 3714 ft 84 kts 101°
2026-04-30 14:12 5.43645 -55.12780 4009 ft 85 kts 101°
2026-04-30 14:12 5.43507 -55.12195 4285 ft 87 kts 102°
2026-04-30 14:12 5.43417 -55.11803 4478 ft 87 kts 101°
2026-04-30 14:13 5.43236 -55.11009 4865 ft 87 kts 101°
2026-04-30 14:13 5.43106 -55.10423 5191 ft 85 kts 101°
2026-04-30 14:13 5.42980 -55.09847 5466 ft 85 kts 101°
2026-04-30 14:13 5.42854 -55.09271 5750 ft 85 kts 101°
2026-04-30 14:14 5.42768 -55.08886 5912 ft 86 kts 101°
2026-04-30 14:14 5.42638 -55.08303 6155 ft 86 kts 101°
2026-04-30 14:14 5.42469 -55.07526 6457 ft 86 kts 101°
2026-04-30 14:14 5.42340 -55.06935 6672 ft 87 kts 101°
2026-04-30 14:15 5.42209 -55.06343 6873 ft 87 kts 101°
2026-04-30 14:15 5.42073 -55.05734 6989 ft 96 kts 101°
2026-04-30 14:15 5.41922 -55.05034 7000 ft 108 kts 101°
2026-04-30 14:15 5.41750 -55.04251 7001 ft 121 kts 101°
2026-04-30 14:16 5.41625 -55.03678 7002 ft 127 kts 102°
2026-04-30 14:16 5.41432 -55.02808 7002 ft 132 kts 101°
2026-04-30 14:16 5.41228 -55.01887 7003 ft 138 kts 101°
2026-04-30 14:16 5.41019 -55.00935 7003 ft 141 kts 101°
2026-04-30 14:17 5.40807 -54.99970 7000 ft 143 kts 101°
2026-04-30 14:17 5.40590 -54.98982 7002 ft 147 kts 101°
2026-04-30 14:17 5.40369 -54.97976 7001 ft 148 kts 102°
2026-04-30 14:17 5.40145 -54.96964 7000 ft 150 kts 101°
2026-04-30 14:18 5.39920 -54.95935 7000 ft 152 kts 101°
2026-04-30 14:18 5.39692 -54.94897 7001 ft 153 kts 101°
2026-04-30 14:18 5.39227 -54.92784 6995 ft 155 kts 102°
2026-04-30 14:19 5.38763 -54.90677 6996 ft 155 kts 102°
2026-04-30 14:19 5.38532 -54.89624 6993 ft 154 kts 102°
2026-04-30 14:19 5.38301 -54.88577 6996 ft 154 kts 101°
2026-04-30 14:20 5.38069 -54.87527 6999 ft 155 kts 102°
2026-04-30 14:20 5.37838 -54.86471 6992 ft 155 kts 101°
2026-04-30 14:20 5.37375 -54.84367 6995 ft 154 kts 101°
2026-04-30 14:21 5.37145 -54.83319 6995 ft 154 kts 101°
2026-04-30 14:21 5.36913 -54.82268 6995 ft 154 kts 102°
2026-04-30 14:21 5.36452 -54.80176 6996 ft 155 kts 102°
2026-04-30 14:22 5.36220 -54.79121 6996 ft 155 kts 102°
2026-04-30 14:22 5.35754 -54.77004 6996 ft 156 kts 101°
2026-04-30 14:22 5.35520 -54.75941 6997 ft 156 kts 101°
2026-04-30 14:23 5.35053 -54.73822 6999 ft 155 kts 101°
2026-04-30 14:23 5.34590 -54.71712 6996 ft 154 kts 102°
2026-04-30 14:24 5.34125 -54.69611 6996 ft 155 kts 102°
2026-04-30 14:24 5.33894 -54.68559 6997 ft 154 kts 102°
2026-04-30 14:25 5.33429 -54.66455 6997 ft 154 kts 102°
2026-04-30 14:25 5.32968 -54.64359 6995 ft 154 kts 102°
2026-04-30 14:26 5.32506 -54.62263 7000 ft 154 kts 102°
2026-04-30 14:26 5.32278 -54.61226 6998 ft 154 kts 102°
2026-04-30 14:26 5.31814 -54.59132 6998 ft 154 kts 102°
2026-04-30 14:27 5.31582 -54.58081 7000 ft 155 kts 101°
2026-04-30 14:27 5.31351 -54.57026 6996 ft 155 kts 101°
2026-04-30 14:27 5.31118 -54.55968 6998 ft 156 kts 101°
2026-04-30 14:28 5.30649 -54.53847 7001 ft 155 kts 101°
2026-04-30 14:28 5.30414 -54.52785 7001 ft 156 kts 101°
2026-04-30 14:28 5.30184 -54.51720 7001 ft 156 kts 101°
2026-04-30 14:28 5.29955 -54.50659 7001 ft 156 kts 101°
2026-04-30 14:29 5.29494 -54.48537 7001 ft 155 kts 101°
2026-04-30 14:29 5.29033 -54.46418 7000 ft 156 kts 101°
2026-04-30 14:30 5.28345 -54.43251 7003 ft 156 kts 102°
2026-04-30 14:31 5.27885 -54.41135 7002 ft 155 kts 102°
2026-04-30 14:31 5.27426 -54.39025 7001 ft 155 kts 102°
2026-04-30 14:31 5.27198 -54.37970 6999 ft 154 kts 102°
2026-04-30 14:32 5.26739 -54.35869 6997 ft 154 kts 102°
2026-04-30 14:32 5.26512 -54.34822 7001 ft 154 kts 101°
2026-04-30 14:32 5.26284 -54.33773 7002 ft 154 kts 102°
2026-04-30 14:33 5.26057 -54.32723 7003 ft 154 kts 101°
2026-04-30 14:33 5.25596 -54.30610 7001 ft 156 kts 102°
2026-04-30 14:33 5.25237 -54.29591 6999 ft 156 kts 116°
2026-04-30 14:34 5.24737 -54.28624 7003 ft 156 kts 114°
2026-04-30 14:34 5.24274 -54.27640 6996 ft 156 kts 113°
2026-04-30 14:34 5.23818 -54.26653 6998 ft 156 kts 113°
2026-04-30 14:34 5.23356 -54.25668 6999 ft 156 kts 114°
2026-04-30 14:35 5.22427 -54.23714 6997 ft 156 kts 114°
2026-04-30 14:35 5.21959 -54.22729 6998 ft 156 kts 114°
2026-04-30 14:35 5.21491 -54.21745 6997 ft 156 kts 114°
2026-04-30 14:36 5.21024 -54.20764 6997 ft 156 kts 114°
2026-04-30 14:36 5.20558 -54.19785 7001 ft 156 kts 114°
2026-04-30 14:36 5.20090 -54.18805 6998 ft 156 kts 114°
2026-04-30 14:36 5.19622 -54.17823 7000 ft 156 kts 114°
2026-04-30 14:37 5.19155 -54.16843 7000 ft 156 kts 114°
2026-04-30 14:37 5.18688 -54.15860 7001 ft 156 kts 114°
2026-04-30 14:37 5.18220 -54.14877 7002 ft 156 kts 114°
2026-04-30 14:37 5.17750 -54.13893 7001 ft 156 kts 114°
2026-04-30 14:38 5.17281 -54.12909 7001 ft 156 kts 114°
2026-04-30 14:38 5.16814 -54.11927 7001 ft 156 kts 114°
2026-04-30 14:38 5.16345 -54.10943 7003 ft 156 kts 114°
2026-04-30 14:38 5.15876 -54.09959 7003 ft 157 kts 114°
2026-04-30 14:39 5.15408 -54.08972 7006 ft 157 kts 114°
2026-04-30 14:39 5.14938 -54.07986 7003 ft 156 kts 114°
2026-04-30 14:39 5.14469 -54.07004 6998 ft 156 kts 114°
2026-04-30 14:40 5.13540 -54.05056 7001 ft 156 kts 113°
2026-04-30 14:40 5.13074 -54.04078 7002 ft 155 kts 113°
2026-04-30 14:40 5.12610 -54.03101 7001 ft 155 kts 113°
2026-04-30 14:40 5.12146 -54.02128 7000 ft 155 kts 113°
2026-04-30 14:41 5.11681 -54.01152 6998 ft 155 kts 114°
2026-04-30 14:41 5.11217 -54.00177 7003 ft 155 kts 113°
2026-04-30 14:41 5.10749 -53.99200 7004 ft 155 kts 114°
2026-04-30 14:41 5.10286 -53.98224 7005 ft 155 kts 114°
2026-04-30 14:42 5.09820 -53.97245 7005 ft 156 kts 114°
2026-04-30 14:42 5.09353 -53.96267 7001 ft 155 kts 114°
2026-04-30 14:42 5.08887 -53.95291 7002 ft 155 kts 114°
2026-04-30 14:42 5.08422 -53.94313 7002 ft 155 kts 114°
2026-04-30 14:43 5.07954 -53.93336 7004 ft 155 kts 114°
2026-04-30 14:43 5.07488 -53.92357 7003 ft 155 kts 114°
2026-04-30 14:43 5.07022 -53.91380 7000 ft 155 kts 114°
2026-04-30 14:43 5.06559 -53.90408 7001 ft 154 kts 114°
2026-04-30 14:44 5.06096 -53.89438 6998 ft 154 kts 114°
2026-04-30 14:44 5.05634 -53.88467 6995 ft 154 kts 114°
2026-04-30 14:44 5.05179 -53.87513 7001 ft 154 kts 114°
2026-04-30 14:44 5.04710 -53.86531 6998 ft 158 kts 114°
2026-04-30 14:45 5.04237 -53.85540 6993 ft 157 kts 114°
2026-04-30 14:45 5.03768 -53.84557 6992 ft 156 kts 114°
2026-04-30 14:45 5.03302 -53.83579 6990 ft 155 kts 114°
2026-04-30 14:45 5.02837 -53.82604 6992 ft 155 kts 114°
2026-04-30 14:46 5.02371 -53.81628 6990 ft 155 kts 114°
2026-04-30 14:46 5.01905 -53.80651 6996 ft 155 kts 114°
2026-04-30 14:46 5.01439 -53.79674 6995 ft 155 kts 114°
2026-04-30 14:46 5.00973 -53.78697 6994 ft 155 kts 114°
2026-04-30 14:47 5.00507 -53.77719 6994 ft 155 kts 114°
2026-04-30 14:47 5.00040 -53.76741 6996 ft 155 kts 114°
2026-04-30 14:47 4.99574 -53.75765 6996 ft 155 kts 114°
2026-04-30 14:47 4.99109 -53.74788 6993 ft 155 kts 114°
2026-04-30 14:48 4.98649 -53.73825 6993 ft 155 kts 114°
2026-04-30 14:48 4.98183 -53.72852 6993 ft 156 kts 114°
2026-04-30 14:48 4.97716 -53.71874 6992 ft 155 kts 113°
2026-04-30 14:48 4.97251 -53.70896 6993 ft 155 kts 114°
2026-04-30 14:49 4.96788 -53.69922 6992 ft 155 kts 114°
2026-04-30 14:49 4.96322 -53.68950 6994 ft 155 kts 114°
2026-04-30 14:49 4.95857 -53.67975 6993 ft 155 kts 114°
2026-04-30 14:49 4.95390 -53.66999 6997 ft 155 kts 114°
2026-04-30 14:50 4.94458 -53.65048 6995 ft 155 kts 113°
2026-04-30 14:50 4.93990 -53.64066 6999 ft 156 kts 113°
2026-04-30 14:51 4.93048 -53.62089 6997 ft 158 kts 114°
2026-04-30 14:51 4.92574 -53.61100 6995 ft 157 kts 114°
2026-04-30 14:51 4.91633 -53.59132 6995 ft 156 kts 113°
2026-04-30 14:52 4.91164 -53.58148 6993 ft 157 kts 113°
2026-04-30 14:52 4.90230 -53.56189 6996 ft 157 kts 113°
2026-04-30 14:52 4.89758 -53.55201 6999 ft 158 kts 113°
2026-04-30 14:53 4.88809 -53.53219 6998 ft 157 kts 113°
2026-04-30 14:53 4.88338 -53.52233 6997 ft 156 kts 113°
2026-04-30 14:54 4.87403 -53.50269 6996 ft 156 kts 113°
2026-04-30 14:54 4.86469 -53.48318 6991 ft 155 kts 112°
2026-04-30 14:55 4.85539 -53.46368 6994 ft 155 kts 113°
2026-04-30 14:55 4.85071 -53.45391 6997 ft 155 kts 113°
2026-04-30 14:55 4.84139 -53.43439 6995 ft 155 kts 113°
2026-04-30 14:56 4.83212 -53.41502 6997 ft 155 kts 113°
2026-04-30 14:56 4.82278 -53.39546 7000 ft 156 kts 113°
2026-04-30 14:57 4.81807 -53.38560 6997 ft 157 kts 113°
2026-04-30 14:57 4.80860 -53.36578 6998 ft 158 kts 113°
2026-04-30 14:58 4.79902 -53.34576 6998 ft 160 kts 113°
2026-04-30 14:58 4.79421 -53.33571 6997 ft 160 kts 113°
2026-04-30 14:58 4.78468 -53.31575 6996 ft 157 kts 113°
2026-04-30 14:59 4.77527 -53.29604 6993 ft 156 kts 113°
2026-04-30 15:00 4.76126 -53.26681 6990 ft 154 kts 113°
2026-04-30 15:00 4.75206 -53.24751 6986 ft 154 kts 113°
2026-04-30 15:01 4.74273 -53.22803 6987 ft 155 kts 113°
2026-04-30 15:01 4.73958 -53.22143 6989 ft 156 kts 113°
2026-04-30 15:01 4.72871 -53.19873 6985 ft 155 kts 113°
2026-04-30 15:02 4.72407 -53.18903 6985 ft 154 kts 113°
2026-04-30 15:02 4.71942 -53.17932 6987 ft 155 kts 113°
2026-04-30 15:03 4.70553 -53.15026 6986 ft 154 kts 113°
2026-04-30 15:03 4.69624 -53.13085 6988 ft 155 kts 113°
2026-04-30 15:04 4.68691 -53.11137 6993 ft 155 kts 113°
2026-04-30 15:04 4.67301 -53.08229 6987 ft 153 kts 113°
2026-04-30 15:05 4.65915 -53.05340 6993 ft 155 kts 113°
2026-04-30 15:06 4.64980 -53.03383 6993 ft 156 kts 113°
2026-04-30 15:06 4.64030 -53.01405 6991 ft 158 kts 115°
2026-04-30 15:07 4.62798 -52.99576 6989 ft 158 kts 123°
2026-04-30 15:07 4.61522 -52.97783 6988 ft 157 kts 122°
2026-04-30 15:08 4.60273 -52.95997 6988 ft 156 kts 122°
2026-04-30 15:08 4.58407 -52.93322 6989 ft 157 kts 122°
2026-04-30 15:09 4.57154 -52.91527 6985 ft 157 kts 122°
2026-04-30 15:09 4.55908 -52.89738 6989 ft 156 kts 122°
2026-04-30 15:10 4.54661 -52.87956 6984 ft 156 kts 122°
2026-04-30 15:11 4.52368 -52.84672 6988 ft 157 kts 122°
2026-04-30 15:11 4.51116 -52.82879 6986 ft 157 kts 122°
2026-04-30 15:12 4.49239 -52.80190 6983 ft 157 kts 122°
2026-04-30 15:13 4.47996 -52.78410 6981 ft 157 kts 122°
2026-04-30 15:14 4.45494 -52.74828 6985 ft 157 kts 122°
2026-04-30 15:14 4.43615 -52.72140 6984 ft 157 kts 122°
2026-04-30 15:16 4.40487 -52.67660 6979 ft 156 kts 122°
2026-04-30 15:17 4.38020 -52.64131 6977 ft 156 kts 122°
2026-04-30 15:18 4.34924 -52.59701 6980 ft 156 kts 122°
2026-04-30 15:19 4.33054 -52.57025 6981 ft 159 kts 122°